Tracking 29892 objects as of 21-Nov-2024
HD Live streaming from Space Station
objects crossing your sky now

STARLINK-5163

Track STARLINK-5163 now!
10-day predictions
STARLINK-5163 is classified as:


NORAD ID: 54054
Int'l Code: 2022-136D
Perigee: 545.8 km
Apogee: 547.9 km
Inclination: 53.2 °
Period: 95.4 minutes
Semi major axis: 6917 km
RCS: Unknown
Launch date: October 20, 2022
Source: United States (US)
Launch site: AIR FORCE EASTERN TEST RANGE (AFETR)
Your satellite tracking list
Your tracking list is empty




NASA's NSSDC Master Catalog

Two Line Element Set (TLE):
1 54054U 22136D   24325.35437081  .00000436  00000-0  45502-4 0  9992
2 54054  53.2176 313.6196 0001506  92.4806 267.6358 15.08841824115717
Source of the keplerian elements: AFSPC